| time (UTC) | temp F | wind direction | speed knots | gust knots | rain 1hr in | rain 24hr in | rain mn in | humidity % | barometer mb |
| 20260508034503 | 48 | 345 | 0.0 | 0.9 | 0.00 | 0.00 | 0.00 | 91 | 1016.8 |
| 20260508033603 | 48 | 341 | 0.0 | 0.9 | 0.00 | 0.00 | 0.00 | 91 | 1016.7 |
| 20260508032918 | 48 | 338 | 0.0 | 0.9 | 0.00 | 0.00 | 0.00 | 91 | 1016.6 |
| 20260508031803 | 48 | 309 | 0.0 | 0.9 | 0.00 | 0.00 | 0.00 | 91 | 1016.2 |
| 20260508031116 | 48 | 0 | 0.0 | 0.0 | 0.00 | 0.00 | 0.00 | 91 | 1016.3 |
| 20260508030004 | 48 | 345 | 0.0 | 0.9 | 0.00 | 0.00 | 0.00 | 91 | 1016.3 |
| 20260508025619 | 48 | 345 | 0.0 | 0.9 | 0.00 | 0.00 | 0.00 | 91 | 1016.0 |
| 20260508024719 | 48 | 5 | 0.0 | 0.9 | 0.00 | 0.00 | 0.00 | 91 | 1016.1 |
| 20260508023603 | 48 | 14 | 0.0 | 0.9 | 0.00 | 0.00 | 0.00 | 91 | 1016.2 |
| 20260508022703 | 48 | 343 | 0.0 | 0.9 | 0.00 | 0.00 | 0.00 | 91 | 1016.2 |
| 20260508021803 | 48 | 342 | 0.0 | 0.9 | 0.00 | 0.01 | 0.00 | 91 | 1016.0 |
| 20260508020903 | 48 | 339 | 0.0 | 0.9 | 0.00 | 0.02 | 0.00 | 90 | 1016.1 |
| 20260508020003 | 48 | 353 | 0.0 | 1.7 | 0.00 | 0.02 | 0.00 | 90 | 1016.1 |
| 20260508015403 | 48 | 332 | 0.9 | 1.7 | 0.00 | 0.02 | 0.00 | 90 | 1016.0 |
| 20260508014718 | 48 | 322 | 0.0 | 1.7 | 0.00 | 0.02 | 0.00 | 90 | 1016.0 |
| 20260508013603 | 48 | 328 | 0.0 | 0.9 | 0.00 | 0.03 | 0.00 | 91 | 1015.8 |
| 20260508012704 | 48 | 1 | 0.0 | 0.9 | 0.00 | 0.03 | 0.00 | 91 | 1016.1 |
| 20260508011804 | 48 | 11 | 0.0 | 0.9 | 0.00 | 0.03 | 0.00 | 90 | 1016.0 |
| 20260508010903 | 48 | 360 | 0.0 | 0.9 | 0.00 | 0.03 | 0.00 | 90 | 1016.2 |
| 20260508010219 | 48 | 337 | 0.0 | 0.9 | 0.00 | 0.03 | 0.00 | 90 | 1016.0 |
| 20260508005403 | 48 | 352 | 0.0 | 0.9 | 0.00 | 0.04 | 0.00 | 90 | 1016.0 |
| 20260508004503 | 48 | 338 | 0.0 | 1.7 | 0.00 | 0.05 | 0.00 | 90 | 1016.0 |
| 20260508003603 | 48 | 328 | 0.0 | 1.7 | 0.00 | 0.06 | 0.00 | 90 | 1015.9 |
| 20260508002703 | 48 | 331 | 0.9 | 2.6 | 0.00 | 0.09 | 0.00 | 90 | 1016.0 |
| 20260508001803 | 48 | 346 | 0.0 | 0.9 | 0.00 | 0.11 | 0.00 | 90 | 1015.9 |
| 20260508000903 | 49 | 344 | 0.0 | 0.9 | 0.00 | 0.12 | 0.00 | 90 | 1016.3 |
| 20260508000003 | 49 | 355 | 0.0 | 0.9 | 0.00 | 0.13 | 0.00 | 90 | 1016.2 |
| 20260507235403 | 49 | 360 | 0.0 | 0.9 | 0.00 | 0.13 | 0.00 | 91 | 1016.1 |
| 20260507234503 | 49 | 350 | 0.0 | 0.9 | 0.00 | 0.15 | 0.00 | 91 | 1016.1 |
| 20260507233603 | 49 | 358 | 0.0 | 0.9 | 0.00 | 0.19 | 0.00 | 91 | 1015.9 |
| 20260507232703 | 49 | 332 | 0.0 | 1.7 | 0.00 | 0.22 | 0.00 | 91 | 1016.0 |
| 20260507231803 | 49 | 345 | 0.0 | 1.7 | 0.00 | 0.23 | 0.00 | 91 | 1016.0 |
| 20260507230903 | 49 | 348 | 0.9 | 2.6 | 0.00 | 0.23 | 0.00 | 91 | 1015.9 |
| 20260507230218 | 49 | 354 | 0.0 | 1.7 | 0.00 | 0.24 | 0.00 | 91 | 1015.9 |
| 20260507225403 | 49 | 355 | 0.0 | 0.9 | 0.00 | 0.24 | 0.00 | 91 | 1016.1 |
| 20260507224504 | 49 | 342 | 0.0 | 1.7 | 0.00 | 0.27 | 0.00 | 91 | 1016.3 |
| 20260507223603 | 49 | 338 | 0.0 | 0.9 | 0.00 | 0.28 | 0.00 | 91 | 1016.0 |
| 20260507222703 | 49 | 333 | 0.0 | 1.7 | 0.00 | 0.28 | 0.00 | 91 | 1016.1 |
| 20260507221803 | 49 | 313 | 0.0 | 1.7 | 0.00 | 0.29 | 0.00 | 91 | 1015.8 |
| 20260507220903 | 49 | 328 | 0.0 | 0.9 | 0.00 | 0.29 | 0.00 | 91 | 1015.8 |
| 20260507220004 | 49 | 336 | 0.0 | 0.9 | 0.00 | 0.32 | 0.00 | 91 | 1016.0 |
| 20260507215404 | 49 | 5 | 0.0 | 1.7 | 0.00 | 0.32 | 0.32 | 91 | 1015.8 |
| 20260507214503 | 49 | 341 | 0.0 | 2.6 | 0.00 | 0.32 | 0.32 | 91 | 1015.8 |
| 20260507213603 | 49 | 330 | 0.9 | 2.6 | 0.00 | 0.33 | 0.32 | 91 | 1015.8 |
| 20260507212919 | 49 | 355 | 0.0 | 0.9 | 0.00 | 0.34 | 0.32 | 91 | 1015.7 |
| 20260507211803 | 49 | 335 | 0.0 | 0.9 | 0.00 | 0.35 | 0.32 | 90 | 1015.7 |
| 20260507210903 | 49 | 0 | 0.0 | 0.0 | 0.00 | 0.36 | 0.32 | 90 | 1015.8 |
| 20260507210004 | 49 | 0 | 0.0 | 0.0 | 0.00 | 0.36 | 0.32 | 90 | 1015.6 |
| 20260507205403 | 49 | 0 | 0.0 | 0.0 | 0.00 | 0.36 | 0.32 | 90 | 1015.7 |
| 20260507204503 | 49 | 356 | 0.0 | 0.9 | 0.00 | 0.40 | 0.32 | 90 | 1015.6 |
| 20260507203603 | 49 | 11 | 0.0 | 0.9 | 0.00 | 0.43 | 0.32 | 90 | 1015.7 |
| 20260507202703 | 49 | 0 | 0.0 | 0.0 | 0.00 | 0.45 | 0.32 | 90 | 1015.5 |
| 20260507202018 | 49 | 336 | 0.0 | 0.9 | 0.00 | 0.46 | 0.32 | 90 | 1015.4 |
| 20260507200903 | 50 | 339 | 0.0 | 1.7 | 0.00 | 0.50 | 0.32 | 90 | 1015.3 |
| 20260507200003 | 50 | 350 | 0.0 | 0.9 | 0.00 | 0.51 | 0.32 | 90 | 1015.4 |
| 20260507195403 | 50 | 12 | 0.0 | 1.7 | 0.00 | 0.52 | 0.32 | 90 | 1015.2 |
| 20260507194503 | 50 | 345 | 0.0 | 1.7 | 0.00 | 0.55 | 0.32 | 90 | 1014.7 |
| 20260507193603 | 50 | 39 | 0.0 | 0.9 | 0.00 | 0.56 | 0.32 | 90 | 1015.1 |
| 20260507192703 | 50 | 7 | 0.0 | 0.9 | 0.00 | 0.56 | 0.32 | 90 | 1015.1 |
| 20260507191803 | 50 | 352 | 0.0 | 0.9 | 0.00 | 0.56 | 0.32 | 90 | 1014.8 |
| 20260507190903 | 50 | 359 | 0.0 | 1.7 | 0.00 | 0.58 | 0.32 | 90 | 1014.8 |
| 20260507190004 | 50 | 336 | 0.0 | 0.9 | 0.00 | 0.58 | 0.32 | 90 | 1014.6 |
| 20260507185403 | 50 | 318 | 0.9 | 2.6 | 0.00 | 0.60 | 0.32 | 90 | 1014.6 |
| 20260507184504 | 50 | 329 | 0.0 | 1.7 | 0.00 | 0.62 | 0.32 | 90 | 1014.4 |
| 20260507183603 | 50 | 16 | 0.0 | 1.7 | 0.00 | 0.65 | 0.32 | 90 | 1014.1 |
| 20260507182703 | 50 | 330 | 0.0 | 2.6 | 0.00 | 0.69 | 0.32 | 90 | 1014.2 |
| 20260507182018 | 50 | 323 | 0.9 | 1.7 | 0.00 | 0.71 | 0.32 | 90 | 1014.1 |
| 20260507180903 | 50 | 337 | 0.0 | 1.7 | 0.00 | 0.90 | 0.32 | 90 | 1013.9 |
| 20260507180004 | 50 | 339 | 0.9 | 3.5 | 0.00 | 0.95 | 0.32 | 90 | 1013.9 |
| 20260507175404 | 50 | 332 | 0.9 | 3.5 | 0.00 | 0.95 | 0.32 | 90 | 1013.7 |
| 20260507174719 | 51 | 333 | 0.9 | 3.5 | 0.00 | 0.95 | 0.32 | 90 | 1013.5 |
| 20260507173818 | 51 | 328 | 0.0 | 1.7 | 0.00 | 0.95 | 0.32 | 90 | 1013.8 |
| 20260507172703 | 51 | 332 | 0.9 | 3.5 | 0.00 | 0.95 | 0.32 | 90 | 1013.7 |
| 20260507171804 | 51 | 355 | 0.9 | 1.7 | 0.00 | 0.95 | 0.32 | 89 | 1013.6 |
| 20260507170903 | 51 | 331 | 0.9 | 1.7 | 0.00 | 0.95 | 0.32 | 89 | 1013.5 |
| 20260507170003 | 51 | 325 | 0.9 | 3.5 | 0.00 | 0.96 | 0.32 | 88 | 1013.4 |
| 20260507165619 | 51 | 312 | 0.9 | 3.5 | 0.00 | 0.96 | 0.32 | 89 | 1013.6 |
| 20260507164503 | 51 | 321 | 0.9 | 3.5 | 0.00 | 0.96 | 0.32 | 89 | 1013.1 |
| 20260507163604 | 51 | 339 | 0.9 | 3.5 | 0.00 | 0.96 | 0.32 | 89 | 1013.2 |
| 20260507162703 | 52 | 5 | 0.9 | 2.6 | 0.00 | 0.96 | 0.32 | 89 | 1012.8 |
| 20260507160004 | 52 | 317 | 0.9 | 5.2 | 0.00 | 0.96 | 0.32 | 90 | 1012.3 |
| 20260507155403 | 52 | 344 | 0.9 | 1.7 | 0.00 | 0.96 | 0.32 | 90 | 1012.5 |
| 20260507154503 | 52 | 326 | 0.9 | 2.6 | 0.00 | 0.96 | 0.32 | 90 | 1012.4 |
| 20260507153603 | 52 | 332 | 0.9 | 3.5 | 0.00 | 0.96 | 0.32 | 90 | 1012.3 |
| 20260507152704 | 53 | 330 | 0.9 | 3.5 | 0.00 | 0.96 | 0.32 | 90 | 1012.3 |
| 20260507151803 | 53 | 337 | 1.7 | 3.5 | 0.00 | 0.96 | 0.32 | 90 | 1012.3 |
| 20260507150903 | 53 | 325 | 1.7 | 5.2 | 0.00 | 0.96 | 0.32 | 90 | 1012.2 |
| 20260507150005 | 53 | 338 | 1.7 | 3.5 | 0.00 | 0.96 | 0.32 | 89 | 1012.2 |
| 20260507144504 | 54 | 324 | 2.6 | 3.5 | 0.00 | 0.96 | 0.32 | 89 | 1012.0 |
| 20260507142917 | 54 | 317 | 1.7 | 3.5 | 0.00 | 0.96 | 0.32 | 89 | 1011.9 |
| 20260507142016 | 54 | 352 | 1.7 | 5.2 | 0.00 | 0.96 | 0.32 | 89 | 1011.9 |
| 20260507140904 | 54 | 318 | 0.9 | 1.7 | 0.00 | 0.96 | 0.32 | 89 | 1012.0 |
| 20260507140004 | 54 | 340 | 1.7 | 5.2 | 0.00 | 0.96 | 0.32 | 89 | 1012.1 |
| 20260507135403 | 55 | 316 | 1.7 | 5.2 | 0.00 | 0.96 | 0.32 | 89 | 1012.0 |
| 20260507134503 | 55 | 327 | 1.7 | 5.2 | 0.00 | 0.96 | 0.32 | 88 | 1012.1 |
| 20260507133604 | 56 | 316 | 0.9 | 2.6 | 0.00 | 0.96 | 0.32 | 88 | 1012.1 |
| 20260507132916 | 56 | 334 | 1.7 | 3.5 | 0.00 | 0.96 | 0.32 | 88 | 1011.8 |
| 20260507132020 | 56 | 326 | 0.9 | 2.6 | 0.00 | 0.96 | 0.32 | 87 | 1011.7 |
| 20260507130903 | 56 | 356 | 0.9 | 5.2 | 0.00 | 0.96 | 0.32 | 88 | 1011.6 |
| 20260507130004 | 56 | 349 | 0.9 | 2.6 | 0.00 | 0.96 | 0.32 | 88 | 1011.8 |
| 20260507125403 | 56 | 336 | 0.9 | 1.7 | 0.00 | 0.96 | 0.32 | 88 | 1011.8 |
| 20260507124503 | 56 | 322 | 0.9 | 2.6 | 0.00 | 0.96 | 0.32 | 88 | 1011.7 |
| 20260507123603 | 55 | 336 | 0.9 | 3.5 | 0.00 | 0.96 | 0.32 | 89 | 1011.7 |
| 20260507122705 | 55 | 335 | 0.9 | 1.7 | 0.00 | 0.96 | 0.32 | 89 | 1011.6 |
| 20260507122019 | 56 | 319 | 0.9 | 1.7 | 0.00 | 0.96 | 0.32 | 89 | 1011.7 |
| 20260507115403 | 55 | 348 | 0.9 | 2.6 | 0.00 | 0.96 | 0.32 | 90 | 1011.5 |
| 20260507114504 | 55 | 334 | 0.9 | 2.6 | 0.00 | 0.96 | 0.32 | 90 | 1011.3 |
| 20260507111803 | 55 | 311 | 1.7 | 3.5 | 0.00 | 0.96 | 0.32 | 91 | 1011.3 |
| 20260507111118 | 55 | 322 | 1.7 | 3.5 | 0.00 | 0.96 | 0.32 | 91 | 1011.2 |
| 20260507110004 | 55 | 346 | 1.7 | 3.5 | 0.00 | 0.96 | 0.32 | 91 | 1010.9 |
| 20260507105403 | 55 | 317 | 1.7 | 5.2 | 0.00 | 0.96 | 0.32 | 91 | 1011.0 |
| 20260507104504 | 55 | 342 | 1.7 | 3.5 | 0.00 | 0.96 | 0.32 | 91 | 1010.9 |
| 20260507103603 | 56 | 329 | 2.6 | 5.2 | 0.00 | 0.96 | 0.32 | 90 | 1010.7 |
| 20260507102703 | 57 | 340 | 1.7 | 5.2 | 0.00 | 0.96 | 0.32 | 90 | 1010.7 |
| 20260507101803 | 56 | 324 | 1.7 | 5.2 | 0.00 | 0.96 | 0.32 | 91 | 1010.7 |
| 20260507100903 | 56 | 331 | 1.7 | 3.5 | 0.00 | 0.96 | 0.32 | 90 | 1010.6 |
| 20260507100004 | 57 | 341 | 1.7 | 2.6 | 0.00 | 0.96 | 0.32 | 90 | 1010.6 |
| 20260507095617 | 57 | 342 | 0.9 | 3.5 | 0.00 | 0.96 | 0.32 | 90 | 1010.7 |
| 20260507094503 | 58 | 327 | 0.9 | 3.5 | 0.00 | 0.96 | 0.32 | 91 | 1010.3 |
| 20260507093604 | 57 | 306 | 0.9 | 3.5 | 0.00 | 0.96 | 0.32 | 93 | 1010.2 |
| 20260507092705 | 57 | 325 | 0.9 | 3.5 | 0.00 | 0.96 | 0.32 | 94 | 1010.1 |
| 20260507091803 | 58 | 333 | 0.0 | 0.9 | 0.00 | 0.96 | 0.32 | 96 | 1009.8 |
| 20260507090903 | 58 | 293 | 0.0 | 0.9 | 0.00 | 0.96 | 0.32 | 97 | 1010.0 |
| 20260507090217 | 56 | 359 | 0.0 | 0.9 | 0.00 | 0.96 | 0.32 | 97 | 1010.0 |
| 20260507085403 | 56 | 335 | 0.0 | 0.9 | 0.00 | 0.96 | 0.32 | 97 | 1009.8 |
| 20260507084716 | 56 | 346 | 0.0 | 0.9 | 0.00 | 0.96 | 0.32 | 97 | 1009.8 |
| 20260507083603 | 55 | 338 | 0.9 | 2.6 | 0.00 | 0.96 | 0.32 | 97 | 1009.7 |
| 20260507082703 | 56 | 360 | 0.0 | 1.7 | 0.00 | 0.96 | 0.32 | 97 | 1009.6 |
| 20260507081803 | 55 | 335 | 0.0 | 1.7 | 0.00 | 0.96 | 0.32 | 97 | 1009.6 |
| 20260507080903 | 55 | 338 | 0.9 | 2.6 | 0.00 | 0.96 | 0.32 | 97 | 1009.5 |
| 20260507080216 | 55 | 346 | 0.0 | 0.9 | 0.00 | 0.96 | 0.32 | 97 | 1009.4 |
| 20260507075620 | 56 | 0 | 0.0 | 0.0 | 0.00 | 0.96 | 0.32 | 97 | 1009.4 |
| 20260507074503 | 55 | 24 | 0.0 | 0.9 | 0.00 | 0.96 | 0.32 | 97 | 1009.0 |
| 20260507073819 | 54 | 0 | 0.0 | 0.0 | 0.00 | 0.96 | 0.32 | 97 | 1009.2 |
| 20260507070007 | 53 | 6 | 0.9 | 1.7 | 0.00 | 0.96 | 0.32 | 97 | 1008.6 |
| 20260507064504 | 53 | 82 | 0.9 | 3.5 | 0.00 | 0.96 | 0.32 | 97 | 1008.9 |
| 20260507063603 | 53 | 22 | 0.0 | 0.9 | 0.00 | 0.96 | 0.32 | 97 | 1008.7 |
| 20260507062703 | 53 | 358 | 0.0 | 1.7 | 0.00 | 0.96 | 0.32 | 97 | 1008.9 |
| 20260507060004 | 53 | 341 | 0.9 | 1.7 | 0.00 | 0.96 | 0.32 | 97 | 1008.5 |
| 20260507055403 | 54 | 345 | 0.9 | 1.7 | 0.00 | 0.96 | 0.32 | 97 | 1008.3 |
| 20260507054719 | 54 | 337 | 0.0 | 0.9 | 0.00 | 0.96 | 0.32 | 97 | 1008.1 |
| 20260507053603 | 54 | 352 | 0.0 | 1.7 | 0.00 | 0.96 | 0.32 | 97 | 1008.0 |
| 20260507052703 | 53 | 323 | 0.9 | 1.7 | 0.00 | 0.96 | 0.32 | 97 | 1008.0 |
| 20260507051120 | 54 | 328 | 0.0 | 0.9 | 0.00 | 0.96 | 0.32 | 97 | 1008.0 |
| 20260507050003 | 54 | 329 | 1.7 | 3.5 | 0.00 | 0.96 | 0.32 | 97 | 1007.8 |
| 20260507045403 | 54 | 341 | 1.7 | 2.6 | 0.00 | 0.96 | 0.32 | 97 | 1007.7 |
| 20260507044718 | 54 | 341 | 0.9 | 2.6 | 0.00 | 0.96 | 0.32 | 97 | 1007.7 |
| 20260507043603 | 54 | 343 | 0.9 | 1.7 | 0.00 | 0.96 | 0.32 | 97 | 1007.7 |
| 20260507042703 | 55 | 302 | 0.9 | 5.2 | 0.00 | 0.96 | 0.32 | 97 | 1007.6 |
| 20260507041803 | 56 | 248 | 0.0 | 0.9 | 0.00 | 0.96 | 0.32 | 97 | 1007.3 |
| 20260507041120 | 56 | 0 | 0.0 | 0.0 | 0.00 | 0.96 | 0.32 | 97 | 1007.4 |
| 20260507035403 | 56 | 0 | 0.0 | 0.0 | 0.00 | 0.96 | 0.32 | 97 | 1007.3 |